Location: site
(53.0000°N, 23.0500°E)
Time: 16:37:45
(UTC+01:00)

SAOCOM 1-A - Pass Details

Date: 20 January 2020
Orbit: 621 x 623 km, 97.9° (Epoch: 25 February)

Event Time Altitude Azimuth Distance (km) Brightness Sun altitude
Rises 03:13:13 0° 119° (ESE) 2,901 ? -37.7°
Reaches altitude 10° 03:15:56 10° 101° (ESE) 1,999 ? -37.3°
Enters shadow 03:17:32 16° 82° (E) 1,631 ? -37.0°
